QPF
0.00 0.00 0.00 0.00 0.00 0.00 0.01 0.01 0.01 0.01 0.01 0.02 0.02 0.00 0.01 0.01 0.01 0.00 0.00 0.01 0.02 0.04 0.18 0.13 0.00 0.00 0.00 0.02 0.03 0.03 0.03 0.03 0.02 0.04 0.04 0.02 0.03 0.01 0.01 0.04 0.10 0.10 0.02
0.00 0.00 0.00 0.00 0.00 0.00 0.01 0.01 0.02 0.01 0.00 0.01 0.09 0.19 0.19 0.19 0.18 0.14 0.13 0.03 0.09 0.09 0.05 0.06 0.02 0.02 0.04 0.02 0.03 0.02 0.02 0.00 0.01 0.02 0.02 0.03 0.03 0.04 0.01 0.07 0.14 0.07 0.05
0.00 0.00 0.00 0.00 0.00 0.00 0.00 0.01 0.02 0.02 0.06 0.08 0.11 0.15 0.09 0.04 0.25 0.32 0.35 0.17 0.13 0.24 0.15 0.11 0.07 0.04 0.06 0.05 0.03 0.01 0.02 0.00 0.00 0.00 0.00 0.00 0.01 0.03 0.02 0.05 0.03 0.05 0.05
0.00 0.00 0.00 0.00 0.00 0.00 0.00 0.00 0.03 0.03 0.05 0.04 0.07 0.07 0.06 0.03 0.07 0.15 0.27 0.34 0.33 0.29 0.26 0.27 0.33 0.21 0.11 0.09 0.04 0.02 0.01 0.00 0.00 0.00 0.00 0.00 0.01 0.04 0.01 0.02 0.03 0.02 0.03
0.00 0.00 0.00 0.00 0.00 0.01 0.00 0.00 0.01 0.01 0.04 0.02 0.05 0.03 0.03 0.02 0.02 0.08 0.31 0.37 0.42 0.35 0.29 0.29 0.43 0.21 0.07 0.10 0.07 0.03 0.04 0.02 0.00 0.00 0.00 0.00 0.01 0.08 0.08 0.07 0.02 0.01 0.01
0.00 0.00 0.00 0.00 0.00 0.01 0.00 0.00 0.00 0.00 0.05 0.03 0.09 0.05 0.05 0.04 0.00 0.03 0.12 0.70 0.97 0.46 0.17 0.22 0.45 0.31 0.12 0.14 0.10 0.03 0.03 0.01 0.00 0.00 0.00 0.01 0.01 0.08 0.05 0.01 0.01 0.01 0.01
0.00 0.00 0.00 0.00 0.00 0.00 0.00 0.00 0.00 0.00 0.02 0.02 0.09 0.10 0.06 0.12 0.15 0.13 0.12 0.33 0.52 0.50 0.10 0.10 0.08 0.20 0.30 0.25 0.07 0.09 0.04 0.00 0.00 0.00 0.00 0.01 0.04 0.05 0.04 0.05 0.04 0.03 0.03
0.00 0.00 0.00 0.00 0.00 0.00 0.00 0.00 0.00 0.00 0.00 0.02 0.05 0.04 0.07 0.19 0.27 0.21 0.28 0.38 0.18 0.21 0.03 0.03 0.11 0.20 0.28 0.25 0.08 0.14 0.09 0.05 0.01 0.00 0.01 0.04 0.14 0.11 0.08 0.07 0.07 0.05 0.03
0.00 0.00 0.00 0.00 0.00 0.00 0.00 0.00 0.00 0.00 0.00 0.06 0.02 0.02 0.16 0.14 0.08 0.63 1.25 0.82 0.20 0.06 0.03 0.04 0.13 0.35 0.30 0.25 0.17 0.13 0.04 0.06 0.02 0.01 0.00 0.07 0.19 0.16 0.09 0.03 0.02 0.01 0.01
0.00 0.00 0.00 0.00 0.00 0.00 0.00 0.00 0.00 0.00 0.01 0.02 0.00 0.00 0.02 0.07 0.07 1.96 1.89 1.48 0.25 0.20 0.12 0.15 0.19 0.17 0.28 0.29 0.14 0.07 0.02 0.00 0.00 0.00 0.01 0.07 0.14 0.07 0.03 0.00 0.00 0.00 0.01
0.00 0.00 0.00 0.00 0.00 0.00 0.00 0.00 0.00 0.00 0.00 0.00 0.00 0.00 0.00 0.01 0.04 1.61 1.18 0.52 0.09 0.10 0.12 0.12 0.09 0.13 0.23 0.21 0.07 0.02 0.00 0.00 0.00 0.00 0.00 0.01 0.01 0.00 0.00 0.00 0.00 0.00 0.00
0.00 0.00 0.00 0.00 0.00 0.00 0.00 0.00 0.00 0.00 0.00 0.00 0.00 0.00 0.00 0.00 0.01 0.50 0.78 0.42 0.26 0.21 0.19 0.07 0.04 0.14 0.16 0.11 0.01 0.00 0.00 0.00 0.00 0.00 0.00 0.01 0.01 0.01 0.00 0.00 0.00 0.00 0.00
0.00 0.00 0.00 0.00 0.00 0.00 0.00 0.00 0.00 0.00 0.00 0.00 0.03 0.00 0.01 0.01 0.00 0.08 0.27 0.28 0.17 0.12 0.09 0.02 0.00 0.01 0.01 0.00 0.00 0.00 0.00 0.00 0.00 0.00 0.00 0.01 0.01 0.01 0.01 0.00 0.00 0.00 0.00
0.00 0.00 0.00 0.00 0.00 0.00 0.00 0.00 0.00 0.00 0.00 0.00 0.01 0.00 0.00 0.02 0.02 0.02 0.04 0.09 0.10 0.08 0.05 0.01 0.00 0.00 0.00 0.00 0.00 0.00 0.00 0.00 0.00 0.00 0.00 0.00 0.00 0.01 0.01 0.00 0.00 0.00 0.00
0.00 0.00 0.00 0.00 0.00 0.00 0.00 0.00 0.00 0.00 0.00 0.00 0.00 0.00 0.00 0.00 0.00 0.00 0.00 0.02 0.04 0.04 0.01 0.00 0.00 0.00 0.00 0.00 0.00 0.00 0.00 0.00 0.00 0.00 0.00 0.00 0.00 0.00 0.00 0.00 0.00 0.00 0.00
0.00 0.00 0.00 0.00 0.00 0.00 0.00 0.00 0.00 0.00 0.00 0.00 0.00 0.00 0.00 0.00 0.00 0.00 0.00 0.00 0.00 0.01 0.00 0.00 0.00 0.00 0.00 0.00 0.00 0.00 0.00 0.00 0.00 0.00 0.00 0.00 0.00 0.00 0.00 0.00 0.00 0.00 0.00
0.00 0.00 0.00 0.00 0.00 0.00 0.00 0.00 0.00 0.00 0.00 0.00 0.00 0.00 0.00 0.00 0.00 0.00 0.00 0.00 0.00 0.00 0.00 0.00 0.00 0.00 0.00 0.00 0.00 0.00 0.00 0.00 0.00 0.00 0.00 0.00 0.00 0.00 0.00 0.00 0.00 0.00 0.00
0.00 0.00 0.00 0.00 0.00 0.00 0.00 0.00 0.00 0.00 0.00 0.00 0.00 0.00 0.00 0.00 0.00 0.00 0.00 0.00 0.00 0.00 0.00 0.00 0.00 0.00 0.00 0.00 0.00 0.00 0.00 0.00 0.00 0.00 0.00 0.00 0.00 0.00 0.00 0.00 0.00 0.00 0.00
0.00 0.00 0.00 0.00 0.00 0.00 0.00 0.00 0.00 0.00 0.00 0.00 0.00 0.00 0.00 0.00 0.00 0.00 0.00 0.00 0.00 0.00 0.00 0.00 0.00 0.00 0.00 0.00 0.00 0.00 0.00 0.00 0.00 0.00 0.00 0.00 0.00 0.00 0.00 0.00 0.00 0.00 0.00
0.00 0.00 0.00 0.01 0.00 0.00 0.00 0.00 0.00 0.00 0.00 0.00 0.00 0.00 0.00 0.00 0.00 0.00 0.00 0.00 0.00 0.00 0.00 0.00 0.00 0.00 0.00 0.00 0.00 0.00 0.00 0.00 0.00 0.00 0.00 0.00 0.00 0.00 0.00 0.00 0.00 0.00 0.00
0.00 0.00 0.00 0.01 0.00 0.00 0.00 0.00 0.00 0.00 0.00 0.00 0.00 0.00 0.00 0.00 0.00 0.00 0.00 0.00 0.00 0.00 0.00 0.00 0.00 0.00 0.00 0.00 0.00 0.00 0.00 0.00 0.00 0.00 0.00 0.00 0.00 0.00 0.00 0.00 0.00 0.00 0.00
0.00 0.00 0.00 0.00 0.00 0.00 0.00 0.00 0.00 0.00 0.00 0.00 0.00 0.00 0.00 0.00 0.00 0.00 0.00 0.00 0.00 0.00 0.00 0.00 0.00 0.00 0.00 0.00 0.00 0.00 0.00 0.00 0.00 0.00 0.00 0.00 0.00 0.00 0.00 0.00 0.00 0.00 0.00
0.03 0.02 0.01 0.01 0.01 0.00 0.00 0.00 0.00 0.01 0.00 0.00 0.00 0.00 0.00 0.00 0.00 0.00 0.00 0.00 0.00 0.00 0.00 0.00 0.00 0.00 0.00 0.00 0.00 0.00 0.00 0.00 0.00 0.00 0.00 0.00 0.00 0.00 0.00 0.00 0.00 0.00 0.00
0.02 0.03 0.03 0.03 0.01 0.01 0.00 0.00 0.00 0.00 0.00 0.00 0.00 0.00 0.01 0.00 0.00 0.00 0.00 0.00 0.00 0.00 0.00 0.00 0.00 0.00 0.00 0.00 0.00 0.00 0.00 0.00 0.00 0.00 0.00 0.00 0.00 0.00 0.00 0.00 0.00 0.00 0.00
0.02 0.03 0.04 0.04 0.02 0.01 0.01 0.00 0.00 0.01 0.00 0.00 0.01 0.01 0.02 0.01 0.00 0.00 0.00 0.00 0.00 0.00 0.00 0.00 0.00 0.00 0.00 0.00 0.00 0.00 0.00 0.00 0.00 0.00 0.00 0.00 0.00 0.00 0.00 0.00 0.00 0.00 0.00
0.03 0.05 0.07 0.07 0.04 0.01 0.01 0.01 0.00 0.00 0.00 0.01 0.02 0.03 0.01 0.02 0.01 0.00 0.00 0.00 0.00 0.00 0.00 0.00 0.00 0.00 0.00 0.00 0.00 0.00 0.00 0.00 0.00 0.00 0.00 0.00 0.00 0.00 0.00 0.00 0.00 0.00 0.00
MSLP
1008.74 1008.85 1008.74 1009.02 1009.33 1009.48 1009.68 1009.79 1010.03 1010.34 1010.50 1010.71 1010.89 1011.09 1011.45 1011.59 1011.73 1011.81 1012.11 1012.23 1012.45 1012.54 1012.60 1012.79 1013.09 1013.45 1013.71 1014.01 1014.32 1014.63 1014.93 1015.10 1015.20 1015.41 1015.26 1015.36 1015.47 1015.67 1015.94 1016.14 1016.14 1016.34 1016.73
1008.24 1008.70 1008.74 1009.07 1009.25 1009.49 1009.66 1009.75 1010.00 1010.27 1010.48 1010.80 1011.01 1011.04 1011.40 1011.56 1011.68 1011.80 1012.13 1012.28 1012.29 1012.57 1012.56 1012.60 1013.03 1013.30 1013.73 1014.19 1014.59 1014.87 1015.18 1015.39 1015.63 1015.80 1015.72 1015.88 1015.92 1015.96 1016.20 1016.37 1016.58 1016.89 1017.09
1008.31 1008.59 1008.74 1009.00 1009.27 1009.48 1009.76 1009.76 1010.05 1010.22 1010.47 1010.82 1011.13 1011.14 1011.45 1011.78 1011.77 1012.11 1012.37 1012.47 1012.40 1012.37 1012.42 1012.57 1012.83 1013.43 1013.92 1014.32 1014.70 1015.09 1015.49 1015.74 1015.89 1016.05 1016.14 1016.08 1016.26 1016.40 1016.59 1016.72 1016.95 1017.26 1017.39
1008.35 1008.54 1008.72 1008.94 1009.17 1009.45 1009.70 1009.83 1010.14 1010.29 1010.55 1010.76 1011.03 1011.15 1011.45 1011.68 1011.97 1011.69 1012.50 1012.61 1012.58 1012.44 1012.52 1012.76 1013.11 1013.67 1014.16 1014.49 1014.88 1015.34 1015.76 1016.14 1016.26 1016.38 1016.33 1016.40 1016.63 1016.84 1016.96 1017.13 1017.27 1017.59 1017.77
1008.31 1008.52 1008.74 1008.95 1009.20 1009.47 1009.69 1009.87 1010.18 1010.40 1010.52 1010.68 1010.98 1011.14 1011.41 1011.46 1011.62 1011.99 1012.06 1012.85 1012.79 1012.61 1012.76 1013.03 1013.51 1014.01 1014.55 1014.88 1015.19 1015.70 1016.05 1016.45 1016.68 1016.63 1016.71 1016.92 1017.09 1017.31 1017.33 1017.51 1017.69 1018.07 1018.26
1008.46 1008.67 1008.87 1009.04 1009.10 1009.40 1009.67 1009.86 1010.08 1010.35 1010.49 1010.66 1010.89 1011.14 1011.30 1011.52 1011.72 1012.01 1012.36 1012.78 1013.01 1012.70 1012.63 1013.18 1012.97 1013.91 1014.72 1015.06 1015.23 1016.15 1016.29 1016.72 1016.83 1016.99 1017.07 1017.34 1017.47 1017.66 1017.78 1017.99 1018.24 1018.58 1018.79
1008.47 1008.62 1008.83 1009.13 1009.13 1009.26 1009.51 1009.71 1009.96 1010.19 1010.38 1010.62 1010.87 1011.09 1011.12 1011.58 1011.71 1011.84 1012.24 1012.74 1013.00 1011.98 1012.87 1013.43 1013.85 1014.47 1015.16 1015.65 1015.66 1016.41 1017.05 1017.09 1016.92 1017.21 1017.44 1017.62 1017.88 1017.96 1018.20 1018.39 1018.79 1019.06 1019.16
1008.48 1008.66 1008.72 1009.10 1009.13 1009.17 1009.44 1009.44 1009.79 1010.14 1010.43 1010.54 1010.75 1010.94 1011.19 1011.20 1011.51 1012.05 1012.46 1012.80 1012.91 1011.54 1013.15 1013.68 1014.09 1014.91 1015.45 1015.87 1016.54 1017.18 1017.22 1017.28 1017.27 1017.64 1017.77 1018.12 1018.35 1018.55 1018.85 1019.11 1019.43 1019.62 1019.76
1008.58 1008.71 1008.73 1008.90 1008.95 1009.17 1009.48 1009.47 1009.59 1010.08 1010.37 1010.52 1010.89 1010.87 1010.98 1011.33 1012.12 1012.53 1012.84 1012.71 1012.52 1013.09 1013.47 1013.79 1014.45 1015.18 1016.07 1016.62 1017.34 1017.54 1017.39 1017.58 1017.64 1018.08 1018.33 1018.71 1018.86 1019.11 1019.44 1019.73 1020.12 1020.25 1020.44
1008.60 1008.83 1008.90 1008.94 1008.94 1009.15 1009.29 1009.54 1009.60 1009.98 1010.37 1010.92 1011.26 1011.26 1011.33 1011.87 1012.15 1011.98 1011.45 1011.86 1012.36 1013.16 1013.59 1014.10 1015.06 1015.69 1016.17 1017.24 1017.82 1017.90 1017.71 1018.01 1018.17 1018.65 1018.87 1019.15 1019.44 1019.79 1020.25 1020.61 1020.81 1021.03 1021.38
1008.69 1008.84 1009.07 1009.09 1009.06 1009.48 1009.42 1009.68 1009.99 1010.48 1010.93 1011.36 1011.71 1011.88 1011.94 1012.22 1012.08 1011.79 1011.05 1010.57 1012.42 1013.38 1013.96 1014.67 1015.49 1016.38 1016.93 1017.87 1018.38 1018.44 1018.37 1018.66 1018.80 1019.13 1019.38 1019.76 1020.11 1020.55 1020.99 1021.28 1021.72 1022.05 1022.21
1008.65 1008.82 1009.10 1009.17 1009.40 1009.56 1009.92 1010.05 1010.43 1011.14 1011.56 1011.83 1012.08 1012.28 1012.39 1012.50 1012.22 1011.61 1012.37 1012.72 1013.92 1014.18 1014.69 1015.48 1016.38 1017.19 1017.84 1018.60 1018.87 1018.90 1018.97 1019.30 1019.55 1019.88 1020.16 1020.33 1020.67 1021.18 1021.65 1022.09 1022.50 1022.58 1022.76
1008.46 1008.74 1009.09 1009.32 1009.56 1009.70 1010.22 1010.48 1010.92 1011.58 1011.92 1012.34 1012.48 1012.76 1012.85 1013.06 1013.04 1012.70 1013.62 1014.47 1015.22 1015.97 1016.69 1016.98 1017.68 1017.92 1018.46 1018.99 1019.02 1019.27 1019.60 1019.84 1020.18 1020.63 1020.87 1021.15 1021.51 1021.95 1022.42 1022.87 1023.07 1023.42 1023.57
1008.37 1008.63 1009.09 1009.43 1009.61 1010.06 1010.34 1010.75 1011.16 1011.83 1012.22 1012.66 1012.87 1013.08 1013.29 1013.84 1013.98 1014.35 1015.31 1015.96 1016.29 1017.25 1017.83 1018.05 1018.58 1018.80 1018.68 1019.28 1019.50 1019.94 1020.24 1020.57 1020.92 1021.38 1021.76 1021.89 1022.25 1022.77 1023.04 1023.47 1023.83 1023.90 1024.03
1007.97 1008.27 1008.86 1009.41 1009.53 1010.25 1010.67 1011.10 1011.48 1012.07 1012.62 1013.02 1013.40 1013.55 1013.66 1014.37 1014.98 1015.53 1016.05 1016.60 1017.60 1018.09 1018.14 1018.64 1018.97 1019.28 1019.26 1019.83 1020.36 1020.57 1021.11 1021.44 1021.56 1021.97 1022.49 1022.74 1023.14 1023.40 1023.73 1024.03 1024.24 1024.37 1024.66
1007.53 1007.66 1008.29 1009.08 1009.36 1010.17 1010.78 1011.25 1011.75 1012.29 1012.87 1013.23 1013.64 1014.04 1014.23 1014.61 1015.23 1015.97 1016.62 1017.26 1017.75 1018.32 1018.65 1018.95 1019.37 1019.73 1020.09 1020.63 1021.18 1021.44 1021.91 1022.21 1022.29 1022.62 1023.14 1023.59 1023.92 1024.08 1024.45 1024.75 1024.75 1024.87 1025.21
1006.41 1007.07 1007.65 1008.59 1009.32 1009.70 1010.73 1011.23 1011.88 1012.54 1012.84 1013.30 1013.86 1014.37 1014.78 1015.04 1015.61 1016.20 1016.92 1017.57 1017.96 1018.32 1019.19 1019.35 1019.61 1020.12 1020.71 1021.27 1021.76 1022.21 1022.66 1023.02 1023.12 1023.43 1023.97 1024.49 1024.82 1025.11 1025.16 1025.42 1025.41 1025.47 1025.58
1006.48 1006.69 1007.32 1008.14 1009.03 1009.52 1010.45 1011.26 1011.97 1012.63 1013.06 1013.47 1014.00 1014.55 1015.00 1015.65 1015.93 1016.63 1017.34 1018.07 1018.31 1018.63 1019.27 1019.73 1019.93 1020.68 1021.16 1021.49 1022.42 1023.09 1023.50 1023.84 1024.10 1024.22 1024.94 1025.50 1025.85 1026.03 1025.83 1026.01 1026.19 1026.10 1026.21
1006.02 1006.61 1007.21 1008.00 1008.83 1009.44 1010.16 1011.28 1012.03 1012.68 1013.20 1013.73 1014.16 1014.64 1015.32 1015.60 1016.22 1016.81 1017.25 1017.96 1018.55 1018.98 1019.73 1019.96 1020.51 1020.78 1021.53 1022.33 1023.19 1024.12 1024.57 1024.77 1025.14 1025.58 1025.91 1026.37 1026.60 1026.63 1026.80 1027.01 1027.21 1027.06 1026.83
1005.85 1006.31 1007.05 1007.91 1008.70 1009.45 1010.24 1011.35 1012.37 1013.07 1013.53 1014.01 1014.34 1014.75 1015.23 1015.78 1016.40 1017.18 1018.00 1018.33 1018.81 1019.14 1019.97 1020.50 1020.78 1021.75 1022.18 1022.94 1023.93 1025.03 1025.28 1025.85 1026.04 1026.27 1026.71 1027.26 1027.36 1027.35 1027.44 1027.70 1027.97 1027.80 1027.67
1005.70 1006.03 1006.63 1007.50 1008.38 1009.29 1010.18 1011.28 1012.27 1012.96 1013.85 1014.19 1014.45 1015.01 1015.39 1015.93 1016.55 1017.02 1017.81 1018.73 1019.15 1019.15 1019.81 1020.44 1021.03 1021.78 1023.22 1023.37 1023.68 1025.25 1026.20 1026.53 1026.59 1026.78 1027.15 1027.20 1027.70 1027.79 1027.69 1028.05 1028.36 1028.44 1028.78
1005.75 1005.76 1006.23 1007.04 1007.82 1008.75 1009.44 1010.47 1011.44 1012.51 1013.56 1014.17 1014.58 1014.96 1015.46 1015.84 1016.34 1016.96 1017.70 1018.49 1019.02 1019.64 1020.25 1020.78 1021.05 1021.89 1022.98 1023.45 1023.83 1024.80 1026.26 1026.99 1026.90 1027.21 1027.28 1027.51 1027.93 1027.98 1028.30 1028.51 1028.55 1028.71 1029.04
1006.27 1006.00 1005.98 1006.41 1007.08 1008.12 1009.09 1010.44 1011.72 1012.73 1013.64 1014.32 1014.85 1015.22 1015.58 1016.02 1016.50 1016.94 1017.65 1018.07 1018.83 1019.53 1020.18 1020.67 1021.09 1021.22 1022.49 1023.59 1023.65 1023.85 1024.88 1025.27 1026.46 1027.47 1027.46 1027.51 1028.18 1028.27 1028.73 1028.84 1028.75 1029.09 1029.45
1008.20 1007.05 1006.06 1006.39 1006.92 1007.63 1008.64 1009.57 1010.63 1011.76 1013.02 1013.66 1014.26 1015.12 1015.71 1016.26 1016.79 1017.21 1017.65 1018.07 1018.72 1019.57 1020.01 1020.38 1020.99 1021.22 1021.97 1023.04 1023.84 1024.04 1024.11 1024.62 1025.68 1027.17 1027.85 1028.17 1028.14 1028.57 1028.68 1028.73 1029.03 1029.36 1029.66
1009.68 1008.20 1006.45 1006.22 1006.93 1007.58 1008.42 1009.08 1010.04 1011.29 1012.30 1013.23 1014.34 1015.21 1015.96 1016.62 1017.03 1017.36 1017.89 1018.52 1018.92 1019.52 1019.97 1020.35 1020.85 1021.38 1022.20 1022.95 1023.66 1024.12 1024.63 1025.24 1025.23 1025.33 1027.17 1028.10 1028.49 1028.79 1028.85 1028.78 1028.98 1029.33 1029.66
1010.60 1009.33 1007.74 1006.30 1006.79 1007.47 1008.16 1008.99 1009.52 1010.53 1011.97 1013.21 1014.28 1015.22 1016.08 1016.69 1016.87 1017.41 1017.51 1018.45 1018.81 1019.31 1019.82 1020.21 1021.05 1021.51 1021.92 1022.61 1023.33 1023.69 1024.06 1024.56 1025.00 1025.16 1026.13 1027.61 1027.78 1028.38 1028.76 1028.96 1029.00 1029.26 1029.61
Thickness
5725 5724 5723 5719 5717 5715 5712 5710 5708 5704 5702 5700 5698 5697 5693 5692 5692 5692 5691 5694 5695 5698 5700 5701 5702 5703 5704 5704 5704 5703 5702 5703 5705 5705 5710 5712 5713 5713 5712 5712 5714 5714 5711
5727 5722 5720 5716 5713 5710 5707 5706 5703 5700 5698 5694 5693 5692 5689 5687 5686 5686 5685 5687 5692 5694 5698 5699 5700 5700 5701 5699 5698 5698 5698 5698 5699 5700 5704 5705 5707 5709 5709 5710 5709 5707 5707
5722 5719 5717 5713 5709 5705 5701 5701 5697 5695 5693 5690 5686 5686 5683 5681 5682 5678 5677 5680 5685 5691 5695 5696 5697 5696 5695 5694 5694 5693 5692 5693 5694 5696 5699 5701 5703 5704 5704 5705 5706 5704 5705
5718 5716 5712 5710 5707 5702 5698 5697 5693 5690 5688 5686 5683 5681 5678 5677 5674 5677 5672 5673 5678 5685 5689 5691 5691 5689 5689 5689 5688 5687 5686 5687 5689 5691 5694 5696 5698 5698 5700 5701 5702 5700 5701
5714 5712 5709 5705 5701 5698 5695 5692 5688 5685 5684 5682 5679 5677 5674 5673 5672 5670 5672 5669 5670 5676 5682 5684 5682 5679 5679 5681 5681 5679 5679 5679 5683 5686 5689 5691 5693 5693 5695 5696 5697 5695 5696
5708 5705 5703 5700 5699 5695 5691 5689 5685 5682 5680 5678 5676 5672 5670 5668 5666 5665 5662 5663 5664 5672 5679 5679 5674 5672 5675 5675 5676 5670 5669 5672 5678 5681 5685 5686 5688 5688 5690 5691 5691 5690 5690
5704 5702 5699 5695 5695 5693 5689 5686 5682 5679 5677 5674 5672 5669 5667 5662 5662 5663 5661 5659 5664 5673 5673 5674 5672 5668 5667 5667 5668 5663 5664 5669 5675 5677 5680 5681 5682 5684 5684 5686 5684 5684 5686
5699 5697 5696 5691 5691 5690 5687 5686 5681 5676 5672 5671 5669 5667 5664 5665 5663 5659 5657 5657 5665 5673 5668 5669 5668 5665 5661 5659 5660 5659 5661 5665 5669 5671 5674 5674 5675 5676 5677 5678 5677 5677 5679
5693 5691 5692 5689 5688 5685 5682 5683 5680 5673 5669 5669 5665 5664 5665 5663 5656 5652 5653 5657 5665 5664 5664 5666 5663 5661 5655 5653 5652 5653 5659 5662 5664 5665 5667 5667 5668 5669 5670 5670 5668 5671 5673
5687 5685 5686 5685 5684 5682 5681 5678 5677 5671 5666 5663 5659 5660 5660 5657 5655 5654 5655 5651 5660 5660 5661 5659 5655 5653 5651 5646 5646 5650 5652 5655 5657 5657 5660 5662 5662 5662 5661 5660 5662 5664 5663
5680 5680 5680 5680 5678 5675 5677 5673 5670 5664 5659 5655 5652 5652 5652 5650 5654 5648 5645 5654 5661 5657 5654 5652 5647 5645 5643 5640 5639 5643 5646 5647 5649 5650 5653 5654 5654 5653 5653 5655 5653 5653 5655
5673 5674 5674 5674 5671 5670 5668 5667 5662 5656 5652 5648 5646 5646 5646 5644 5651 5657 5643 5651 5646 5645 5644 5641 5638 5635 5635 5635 5633 5636 5637 5639 5641 5641 5643 5646 5646 5645 5646 5644 5644 5647 5648
5670 5669 5666 5667 5664 5663 5661 5659 5654 5648 5645 5641 5640 5638 5638 5637 5638 5643 5637 5635 5633 5630 5629 5629 5626 5628 5627 5626 5629 5630 5630 5632 5633 5631 5635 5637 5636 5636 5637 5635 5637 5636 5638
5663 5664 5659 5658 5659 5655 5654 5652 5649 5643 5639 5636 5635 5631 5632 5629 5629 5628 5621 5618 5622 5618 5617 5618 5616 5618 5623 5622 5623 5623 5623 5623 5623 5623 5624 5628 5628 5628 5629 5626 5626 5628 5631
5660 5659 5655 5652 5653 5647 5645 5643 5641 5636 5632 5630 5627 5626 5625 5618 5616 5613 5612 5610 5606 5607 5610 5608 5609 5609 5614 5613 5612 5614 5613 5614 5616 5616 5615 5618 5616 5617 5618 5618 5618 5621 5622
5656 5658 5653 5648 5647 5642 5638 5636 5633 5629 5625 5623 5620 5618 5617 5614 5610 5605 5603 5600 5600 5600 5600 5600 5600 5600 5601 5599 5599 5602 5602 5604 5607 5607 5606 5606 5607 5609 5608 5608 5610 5612 5612
5656 5653 5652 5646 5640 5639 5633 5629 5625 5620 5619 5617 5614 5610 5608 5607 5605 5602 5597 5594 5595 5595 5591 5593 5594 5593 5592 5589 5589 5590 5591 5592 5595 5596 5596 5595 5596 5596 5599 5598 5601 5602 5604
5646 5648 5645 5641 5635 5633 5627 5621 5617 5613 5611 5611 5608 5606 5604 5599 5597 5593 5590 5587 5589 5590 5586 5585 5586 5583 5584 5585 5579 5578 5578 5580 5582 5586 5584 5583 5584 5586 5588 5589 5590 5592 5593
5638 5637 5636 5631 5627 5625 5620 5613 5609 5605 5603 5602 5600 5598 5595 5597 5593 5588 5587 5583 5581 5582 5578 5580 5578 5580 5577 5574 5570 5567 5567 5569 5569 5569 5570 5570 5571 5574 5576 5577 5576 5580 5584
5628 5628 5625 5622 5619 5615 5610 5605 5598 5595 5594 5593 5593 5591 5589 5587 5586 5581 5577 5576 5572 5572 5569 5569 5570 5566 5566 5564 5559 5553 5556 5554 5556 5557 5556 5554 5557 5563 5566 5567 5565 5568 5571
5618 5619 5618 5615 5611 5607 5602 5595 5590 5589 5583 5583 5584 5582 5581 5579 5576 5576 5573 5567 5565 5569 5566 5564 5562 5560 5551 5553 5554 5545 5540 5540 5544 5546 5545 5548 5548 5552 5556 5557 5556 5558 5557
5606 5611 5609 5606 5603 5601 5598 5592 5588 5582 5576 5573 5573 5576 5574 5574 5572 5569 5565 5562 5560 5558 5556 5555 5556 5553 5546 5546 5548 5544 5537 5534 5535 5535 5538 5539 5539 5543 5545 5547 5550 5551 5549
5585 5597 5601 5602 5598 5594 5590 5580 5573 5568 5564 5563 5564 5565 5565 5564 5564 5563 5561 5560 5556 5554 5551 5552 5552 5555 5545 5539 5543 5548 5540 5550 5534 5526 5529 5532 5529 5532 5532 5535 5540 5540 5539
5547 5566 5586 5587 5586 5585 5581 5576 5572 5568 5562 5560 5558 5553 5553 5552 5552 5551 5550 5551 5549 5546 5547 5547 5545 5548 5544 5539 5536 5537 5538 5538 5535 5523 5518 5517 5521 5520 5524 5528 5528 5528 5527
5520 5540 5566 5576 5572 5571 5569 5568 5565 5559 5555 5551 5545 5543 5540 5538 5540 5541 5540 5538 5539 5538 5539 5539 5539 5537 5533 5531 5529 5529 5528 5525 5528 5534 5521 5515 5513 5513 5517 5520 5520 5519 5519
5497 5514 5537 5562 5561 5557 5557 5554 5557 5552 5543 5537 5534 5530 5529 5528 5530 5531 5535 5532 5532 5532 5532 5532 5528 5528 5527 5525 5523 5524 5526 5527 5526 5527 5522 5510 5515 5510 5509 5509 5511 5511 5510